KG5VSR Weather Reports


time (UTC)temp
F
wind
direction
speed
knots
gust
knots
rain 1hr
in
rain 24hr
in
rain mn
in
humidity
%
barometer
mb
20260506042148 68 333 2.6 4.3 0.00 0.32 0.32 81 1009.5
20260506035149 70 333 1.7 1.7 0.00 0.32 0.32 81 1009.0
20260506032148 71 346 2.6 4.3 0.00 0.32 0.32 81 1008.7
20260506025148 72 347 0.0 0.9 0.00 0.32 0.32 81 1007.8
20260506022147 68 137 0.0 0.9 0.00 0.32 0.32 95 1006.9
20260506015143 68 5 0.0 0.0 0.00 0.32 0.32 98 1006.5
20260506012141 70 337 0.0 0.9 0.00 0.32 0.32 99 1006.4
20260506005136 76 319 0.0 0.0 0.00 0.32 0.32 99 1005.3
20260506002131 75 321 0.0 0.0 0.07 0.32 0.32 98 1005.4
20260505235131 84 310 0.9 0.9 0.00 0.00 0.00 76 1004.5
20260505232131 86 189 2.6 4.3 0.00 0.00 0.00 73 1004.3
20260505225131 88 204 3.5 5.2 0.00 0.00 0.00 69 1003.9
20260505222128 89 151 2.6 4.3 0.00 0.00 0.00 66 1003.7
20260505215125 90 186 2.6 2.6 0.00 0.00 0.00 65 1004.0
20260505212124 91 163 2.6 5.2 0.00 0.00 0.00 62 1004.2
20260505205125 92 154 1.7 4.3 0.00 0.00 0.00 57 1004.6
20260505202122 90 146 0.9 1.7 0.00 0.00 0.00 60 1004.9
20260505195123 89 289 1.7 1.7 0.00 0.00 0.00 65 1005.3
20260505192123 86 182 1.7 2.6 0.00 0.00 0.00 70 1005.1
20260505185120 86 199 1.7 1.7 0.00 0.00 0.00 72 1005.5
20260505182118 83 109 4.3 6.1 0.00 0.00 0.00 74 1005.7
20260505175115 84 134 2.6 2.6 0.00 0.00 0.00 73 1006.0
20260505172114 83 195 4.3 5.2 0.00 0.00 0.00 74 1005.9
20260505165114 80 180 1.7 2.6 0.00 0.00 0.00 77 1005.9
20260505162109 81 123 2.6 5.2 0.00 0.00 0.00 75 1005.8
20260505152104 78 200 2.6 2.6 0.00 0.00 0.00 80 1006.0
20260505122050 71 171 7.8 11.3 0.00 0.00 0.00 90 1004.7
20260505115045 71 198 0.9 0.9 0.00 0.00 0.00 90 1004.9
20260505112044 71 187 2.6 2.6 0.00 0.00 0.00 90 1004.6
20260505102039 71 158 1.7 4.3 0.00 0.00 0.00 89 1004.6
20260505095037 72 189 3.5 5.2 0.00 0.00 0.00 88 1004.9
20260505092037 71 169 2.6 4.3 0.00 0.00 0.00 89 1005.1
20260505085033 71 188 3.5 6.1 0.00 0.00 0.00 89 1005.2
20260505082033 71 173 4.3 6.1 0.00 0.00 0.00 89 1005.5
20260505075030 71 276 2.6 2.6 0.00 0.00 0.00 89 1005.6
20260505072029 71 182 4.3 6.1 0.00 0.00 0.00 87 1006.1
20260505065025 72 211 3.5 4.3 0.00 0.00 0.00 86 1006.1
20260505062025 73 174 7.0 9.6 0.00 0.00 0.00 84 1006.5